Location: Goudex
(43.3760°N, 0.9543°E)
Time: 22:51:24
(UTC+00:00)

N. Korean satellite - Visible Passes

Search period start: 26 February 2021 00:00
Search period end: 08 March 2021 00:00
Orbit: 451 x 503 km, 97.2° (Epoch: 26 February)

Date Brightness Start Highest point End Pass type
(mag) Time Alt. Az. Time Alt. Az. Time Alt. Az.
26 Feb 9.4 04:34:15 10° NE 04:36:46 18° E 04:39:17 10° SE visible
26 Feb 7.5 06:07:06 10° NNW 06:10:04 27° WNW 06:13:04 10° SW visible
27 Feb 6.5 05:40:01 10° N 05:43:27 58° WNW 05:46:56 10° SSW visible
28 Feb 7.1 05:13:16 10° NNE 05:16:45 59° E 05:20:15 10° S visible
01 Mar 8.8 04:46:54 10° NE 04:49:56 26° E 04:52:59 10° SSE visible
02 Mar 9.8 04:21:20 10° ENE 04:23:01 13° E 04:24:44 10° ESE visible
02 Mar 7.0 05:53:11 10° N 05:56:30 39° WNW 05:59:50 10° SW visible
03 Mar 6.5 05:26:16 10° NNE 05:29:49 90° W 05:33:24 10° SSW visible
04 Mar 8.0 04:59:40 10° NNE 05:03:02 39° E 05:06:25 10° SSE visible
05 Mar 9.5 04:33:34 10° NE 04:36:09 19° E 04:38:44 10° SE visible
06 Mar 6.6 05:39:17 10° N 05:42:48 60° WNW 05:46:21 10° SSW visible
07 Mar 7.2 05:12:30 10° NNE 05:16:03 59° E 05:19:37 10° S visible
